Quantico, VA

9:18 PM EST on December 08, 2019 (GMT -0500)
Quantico Marine Corps Air Facility

Weather History for KNYG - October, 2019

Change the Weather History Date:

Sunday, October 27, 2019

  Actual Average Record
Temperature  
Mean Temperature 72 °F -  
Max Temperature 82 °F 61 °F 82 °F (2019)
Min Temperature 62 °F 43 °F 33 °F (2001)
Cooling Degree Days 7    
Growing Degree Days 22 (Base 50)    
Moisture  
Dew Point 64 °F    
Average Humidity 84    
Maximum Humidity 100    
Minimum Humidity 43    
Precipitation  
Precipitation 1.20 in - - ()
Sea Level Pressure  
Sea Level Pressure 29.84 in    
Wind  
Wind Speed 9 mph (SSW)    
Max Wind Speed 18 mph    
Max Gust Speed -    
Visibility 6 miles    
Events Fog , Rain , Thunderstorm    
Averages and records for this station are not official NWS values.
T = Trace of Precipitation, MM = Missing Value Source: NWS Daily Summary

Daily Weather History Graph

Daily Weather History Graph

Search for Another Location

Airport or City:

Astronomy

Oct. 27, 2019 Rise Set
Actual Time 7:30 AM EDT 6:15 PM EDT
Civil Twilight 7:03 AM EDT 6:42 PM EDT
Nautical Twilight 6:31 AM EDT 7:13 PM EDT
Astronomical Twilight 6:01 AM EDT 7:44 PM EDT
Moon 6:37 AM EDT (10/27) 6:22 PM EDT (10/27)
Length of Visible Light 11h 39m
Length of Day
10h 45m
Waning Crescent, 0% of the Moon is Illuminated
Oct 27
Waning Crescent
Oct 27
New
Nov 4
First Quarter
Nov 12
Full
Nov 19
Last Quarter

Hourly Weather History & Observations

Time (EDT) Temp. Heat Index Dew Point Humidity Pressure Visibility Wind Dir Wind Speed Gust Speed Precip Events Conditions
12:56 AM 62.1 °F - 57.9 °F 86% 30.06 in 9.0 mi ESE 6.9 mph - N/A   Overcast
1:56 AM 63.0 °F - 59.0 °F 87% 30.05 in 9.0 mi SE 4.6 mph - N/A   Overcast
2:56 AM 63.0 °F - 59.0 °F 87% 30.01 in 7.0 mi SE 5.8 mph - 0.00 in Rain Light Rain
3:53 AM 62.6 °F - 60.8 °F 94% 29.95 in 5.0 mi ESE 4.6 mph - 0.02 in Rain Rain
3:56 AM 63.0 °F - 61.0 °F 93% 29.96 in 4.0 mi SSE 8.1 mph - 0.03 in Rain Rain
4:56 AM 64.0 °F - 62.1 °F 93% 29.90 in 3.0 mi SE 11.5 mph - 0.06 in Rain Rain
5:56 AM 64.9 °F - 63.0 °F 93% 29.88 in 8.0 mi SSE 17.3 mph - 0.02 in   Overcast
6:56 AM 66.0 °F - 64.0 °F 93% 29.83 in 8.0 mi SSE 16.1 mph - 0.00 in   Overcast
7:56 AM 66.9 °F - 64.9 °F 93% 29.82 in 8.0 mi South 18.4 mph - 0.06 in   Overcast
8:20 AM 68.0 °F - 66.0 °F 93% 29.81 in 7.0 mi South 18.4 mph - 0.00 in   Overcast
8:56 AM 68.0 °F - 66.0 °F 93% 29.81 in 7.0 mi South 17.3 mph - 0.00 in   Overcast
9:18 AM 66.9 °F - 64.9 °F 93% 29.81 in 1.8 mi South 11.5 mph - 0.04 in Rain , Thunderstorm Thunderstorms and Rain
9:25 AM 66.9 °F - 64.9 °F 93% 29.80 in 1.0 mi South 15.0 mph - 0.06 in Rain , Thunderstorm Light Thunderstorms and Rain
9:30 AM 66.9 °F - 64.9 °F 93% 29.80 in 2.5 mi South 12.7 mph - 0.07 in Rain , Thunderstorm Light Thunderstorms and Rain
9:33 AM 66.0 °F - 64.9 °F 96% 29.80 in 3.0 mi South 12.7 mph - 0.07 in Rain Light Rain
9:41 AM 66.9 °F - 64.9 °F 93% 29.80 in 1.8 mi South 12.7 mph - 0.09 in Rain Rain
9:48 AM 66.9 °F - 66.0 °F 97% 29.81 in 1.0 mi SSW 8.1 mph - 0.13 in Rain Rain
9:56 AM 68.0 °F - 66.9 °F 96% 29.81 in 0.5 mi South 6.9 mph - 0.28 in Fog , Rain Heavy Rain
10:08 AM 66.0 °F - 64.9 °F 96% 29.80 in 0.5 mi SSE 6.9 mph - 0.14 in Fog , Rain Heavy Rain
10:53 AM 69.8 °F - 68.0 °F 94% 29.77 in 0.2 mi WNW 9.2 mph - 0.63 in Fog , Rain Heavy Rain
10:56 AM 69.1 °F - 68.0 °F 96% 29.78 in 0.5 mi WNW 9.2 mph - 0.63 in Fog , Rain Rain
11:12 AM 70.0 °F - 69.1 °F 97% 29.76 in 1.0 mi SE 5.8 mph - 0.12 in Rain Light Rain
11:14 AM 69.1 °F - 69.1 °F 100% 29.76 in 2.0 mi SE 4.6 mph - 0.12 in Rain Light Rain
11:21 AM 69.1 °F - 68.0 °F 96% 29.76 in 1.8 mi SSE 5.8 mph - 0.12 in   Mostly Cloudy
11:26 AM 69.1 °F - 69.1 °F 100% 29.76 in 1.0 mi SE 4.6 mph - 0.12 in   Mostly Cloudy
11:32 AM 71.1 °F - 70.0 °F 96% 29.76 in 2.0 mi Calm Calm - 0.12 in   Scattered Clouds
11:39 AM 71.1 °F - 70.0 °F 96% 29.77 in 10.0 mi South 3.5 mph - 0.12 in   Partly Cloudy
11:54 AM 71.6 °F - 69.8 °F 94% 29.78 in 10.0 mi South 3.5 mph - 0.12 in   Mostly Cloudy
11:56 AM 71.1 °F - 69.1 °F 93% 29.79 in 10.0 mi South 3.5 mph - 0.12 in   Mostly Cloudy
12:15 PM 73.9 °F - 71.1 °F 91% 29.79 in 10.0 mi WNW 10.4 mph - N/A   Overcast
12:45 PM 73.9 °F - 70.0 °F 87% 29.80 in 10.0 mi West 8.1 mph - N/A   Overcast
12:56 PM 75.0 °F - 70.0 °F 84% 29.80 in 10.0 mi West 5.8 mph - N/A   Mostly Cloudy
1:03 PM 75.9 °F - 70.0 °F 82% 29.79 in 10.0 mi WNW 8.1 mph - N/A   Mostly Cloudy
1:17 PM 77.0 °F - 70.0 °F 79% 29.79 in 10.0 mi West 8.1 mph - N/A   Scattered Clouds
1:56 PM 78.1 °F - 66.9 °F 68% 29.78 in 10.0 mi West 8.1 mph - N/A   Clear
2:56 PM 80.1 °F 81.9 °F 64.9 °F 60% 29.78 in 10.0 mi West 5.8 mph - N/A   Scattered Clouds
3:56 PM 82.0 °F 82.7 °F 61.0 °F 49% 29.80 in 10.0 mi West 10.4 mph - N/A   Clear
4:56 PM 80.1 °F 80.2 °F 55.9 °F 43% 29.81 in 10.0 mi West 10.4 mph - N/A   Clear
5:56 PM 77.0 °F - 55.9 °F 48% 29.85 in 10.0 mi WNW 6.9 mph - N/A   Clear
6:56 PM 68.0 °F - 57.9 °F 70% 29.88 in 10.0 mi NW 10.4 mph - N/A   Clear
7:56 PM 72.0 °F - 51.1 °F 48% 29.93 in 10.0 mi NNW 11.5 mph - N/A   Clear
8:56 PM 69.1 °F - 51.1 °F 53% 29.95 in 10.0 mi NNW 10.4 mph - N/A   Clear
9:56 PM 63.0 °F - 53.1 °F 70% 29.99 in 10.0 mi WNW 8.1 mph - N/A   Clear
10:56 PM 63.0 °F - 54.0 °F 72% 30.02 in 10.0 mi WNW 4.6 mph - N/A   Clear
11:56 PM 62.1 °F - 51.1 °F 67% 30.02 in 10.0 mi WNW 8.1 mph - N/A   Clear